When you browse on this site, cookies collect data to enhance your experience and personalize the content and advertising you see.
Visit our Privacy Policy to learn more. By continuing to use the site, you agree to this use of cookies and data.
  • Em Portugal
  • Lista de países
  • Para 7 dias
  • Temperatura da água
  • Mapa do tempo
  • Widgets de tempo
  • user-avatar
    Iniciar Sessão

    Previsão horária em Bo

    Hoje, 8 Abril, Quarta-feira

    Tempo Temperatura Precipitação Vento Pressão Humidade
    00:00 +27°C° 0 mm 1 m/s 749 mmHg 89%
    01:00 +27°C° 0 mm 1 m/s 749 mmHg 90%
    02:00 +27°C° 0 mm 1 m/s 748 mmHg 92%
    03:00 +24°C° 0 mm 0 m/s 748 mmHg 93%
    04:00 +24°C° 0 mm 0 m/s 748 mmHg 94%
    05:00 +24°C° 0 mm 0 m/s 748 mmHg 95%
    06:00 +28°C° 0 mm 1 m/s 749 mmHg 88%
    07:00 +29°C° 0 mm 1 m/s 749 mmHg 80%
    08:00 +31°C° 0 mm 1 m/s 750 mmHg 73%
    09:00 +32°C° 0 mm 1 m/s 750 mmHg 67%
    10:00 +33°C° 0 mm 1 m/s 750 mmHg 62%
    11:00 +34°C° 0 mm 1 m/s 749 mmHg 56%
    12:00 +35°C° 0 mm 1 m/s 749 mmHg 54%
    13:00 +35°C° 0 mm 1 m/s 748 mmHg 52%
    14:00 +36°C° 0 mm 2 m/s 747 mmHg 51%
    15:00 +35°C° 0.9 mm 2 m/s 747 mmHg 57%
    16:00 +34°C° 0.9 mm 2 m/s 746 mmHg 63%
    17:00 +32°C° 0.9 mm 2 m/s 746 mmHg 69%
    18:00 +30°C° 1 mm 1 m/s 747 mmHg 76%
    19:00 +29°C° 1 mm 1 m/s 748 mmHg 82%
    20:00 +27°C° 1 mm 1 m/s 749 mmHg 88%
    21:00 +25°C° 0 mm 0 m/s 749 mmHg 89%
    22:00 +25°C° 0 mm 0 m/s 749 mmHg 90%
    23:00 +25°C° 0 mm 0 m/s 749 mmHg 91%

    Amanhã, 9 Abril, Quinta-feira

    Tempo Temperatura Precipitação Vento Pressão Humidade
    00:00 +25°C° 0 mm 0 m/s 749 mmHg 91%
    01:00 +25°C° 0 mm 0 m/s 748 mmHg 92%
    02:00 +27°C° 0 mm 1 m/s 748 mmHg 92%
    03:00 +25°C° 0 mm 0 m/s 748 mmHg 93%
    04:00 +24°C° 0 mm 0 m/s 748 mmHg 93%
    05:00 +24°C° 0 mm 0 m/s 748 mmHg 94%
    06:00 +25°C° 0 mm 0 m/s 749 mmHg 89%
    07:00 +26°C° 0 mm 0 m/s 749 mmHg 84%
    08:00 +28°C° 0 mm 0 m/s 750 mmHg 78%
    09:00 +31°C° 0 mm 1 m/s 749 mmHg 70%
    10:00 +33°C° 0 mm 1 m/s 749 mmHg 62%
    11:00 +35°C° 0 mm 1 m/s 749 mmHg 54%
    12:00 +35°C° 0.3 mm 1 m/s 748 mmHg 54%
    13:00 +35°C° 0.3 mm 1 m/s 748 mmHg 54%
    14:00 +35°C° 0.3 mm 1 m/s 747 mmHg 54%
    15:00 +35°C° 0.3 mm 1 m/s 747 mmHg 56%
    16:00 +34°C° 0.3 mm 1 m/s 747 mmHg 58%
    17:00 +34°C° 0.3 mm 1 m/s 746 mmHg 60%
    18:00 +32°C° 0 mm 1 m/s 747 mmHg 66%
    19:00 +31°C° 0 mm 1 m/s 748 mmHg 73%
    20:00 +29°C° 0 mm 2 m/s 749 mmHg 79%
    21:00 +29°C° 0 mm 1 m/s 749 mmHg 82%
    22:00 +28°C° 0 mm 1 m/s 749 mmHg 84%
    23:00 +26°C° 0 mm 0 m/s 749 mmHg 87%

    Depois de amanhã, 10 Abril, Sexta-feira

    Tempo Temperatura Precipitação Vento Pressão Humidade
    00:00 +26°C° 0 mm 0 m/s 748 mmHg 89%
    01:00 +25°C° 0 mm 0 m/s 748 mmHg 90%
    02:00 +25°C° 0 mm 0 m/s 748 mmHg 92%
    03:00 +25°C° 0 mm 0 m/s 748 mmHg 93%
    04:00 +25°C° 0 mm 0 m/s 748 mmHg 94%
    05:00 +24°C° 0 mm 0 m/s 748 mmHg 95%
    06:00 +26°C° 0 mm 0 m/s 749 mmHg 86%
    07:00 +30°C° 0 mm 1 m/s 749 mmHg 77%
    08:00 +31°C° 0 mm 1 m/s 750 mmHg 69%
    09:00 +33°C° 0 mm 1 m/s 749 mmHg 61%
    10:00 +35°C° 0 mm 1 m/s 749 mmHg 53%
    11:00 +37°C° 0 mm 1 m/s 749 mmHg 45%
    12:00 +37°C° 0 mm 1 m/s 748 mmHg 44%
    13:00 +37°C° 0 mm 1 m/s 747 mmHg 43%
    14:00 +38°C° 0 mm 2 m/s 747 mmHg 42%
    15:00 +37°C° 0.2 mm 2 m/s 747 mmHg 47%
    16:00 +36°C° 0.2 mm 2 m/s 747 mmHg 51%
    17:00 +35°C° 0.2 mm 2 m/s 746 mmHg 56%
    18:00 +32°C° 1.3 mm 2 m/s 747 mmHg 66%
    19:00 +30°C° 1.3 mm 2 m/s 748 mmHg 76%
    20:00 +28°C° 1.3 mm 1 m/s 749 mmHg 86%
    21:00 +28°C° 0.5 mm 1 m/s 749 mmHg 87%
    22:00 +28°C° 0.5 mm 1 m/s 749 mmHg 89%
    23:00 +26°C° 0.5 mm 0 m/s 749 mmHg 91%

    11 Abril, Sábado

    Tempo Temperatura Precipitação Vento Pressão Humidade
    00:00 +25°C° 0 mm 0 m/s 748 mmHg 92%
    01:00 +25°C° 0 mm 0 m/s 748 mmHg 93%
    02:00 +25°C° 0 mm 0 m/s 748 mmHg 95%
    03:00 +25°C° 0 mm 0 m/s 748 mmHg 95%
    04:00 +25°C° 0 mm 0 m/s 748 mmHg 96%
    05:00 +25°C° 0 mm 0 m/s 748 mmHg 97%
    06:00 +26°C° 0 mm 0 m/s 749 mmHg 90%
    07:00 +27°C° 0 mm 0 m/s 749 mmHg 83%
    08:00 +29°C° 0 mm 0 m/s 750 mmHg 76%
    09:00 +30°C° 0 mm 0 m/s 749 mmHg 69%
    10:00 +31°C° 0 mm 0 m/s 749 mmHg 63%
    11:00 +34°C° 0 mm 1 m/s 749 mmHg 57%
    12:00 +34°C° 0 mm 1 m/s 748 mmHg 55%
    13:00 +35°C° 0 mm 1 m/s 748 mmHg 54%
    14:00 +35°C° 0 mm 1 m/s 747 mmHg 53%
    15:00 +34°C° 0.2 mm 1 m/s 747 mmHg 55%
    16:00 +35°C° 0.2 mm 2 m/s 747 mmHg 58%
    17:00 +34°C° 0.2 mm 2 m/s 747 mmHg 61%
    18:00 +32°C° 0.2 mm 2 m/s 748 mmHg 67%
    19:00 +30°C° 0.2 mm 1 m/s 748 mmHg 74%
    20:00 +29°C° 0.2 mm 1 m/s 749 mmHg 81%
    21:00 +29°C° 0.5 mm 1 m/s 749 mmHg 83%
    22:00 +28°C° 0.5 mm 1 m/s 750 mmHg 85%
    23:00 +28°C° 0.5 mm 1 m/s 750 mmHg 87%

    12 Abril, Domingo

    Tempo Temperatura Precipitação Vento Pressão Humidade
    00:00 +26°C° 1.5 mm 0 m/s 749 mmHg 88%
    01:00 +25°C° 1.5 mm 0 m/s 749 mmHg 89%
    02:00 +25°C° 1.5 mm 0 m/s 748 mmHg 91%
    03:00 +25°C° 0 mm 0 m/s 748 mmHg 90%
    04:00 +25°C° 0 mm 0 m/s 748 mmHg 90%
    05:00 +25°C° 0 mm 0 m/s 748 mmHg 90%
    06:00 +25°C° 0 mm 0 m/s 749 mmHg 88%
    07:00 +26°C° 0 mm 0 m/s 749 mmHg 87%
    08:00 +26°C° 0 mm 0 m/s 750 mmHg 85%
    09:00 +29°C° 0 mm 0 m/s 750 mmHg 74%
    10:00 +33°C° 0 mm 1 m/s 749 mmHg 63%
    11:00 +36°C° 0 mm 1 m/s 749 mmHg 52%
    12:00 +36°C° 0 mm 1 m/s 748 mmHg 51%
    13:00 +36°C° 0 mm 1 m/s 748 mmHg 49%
    14:00 +36°C° 0 mm 1 m/s 747 mmHg 48%
    15:00 +35°C° 0.2 mm 1 m/s 747 mmHg 52%
    16:00 +35°C° 0.2 mm 2 m/s 747 mmHg 56%
    17:00 +34°C° 0.2 mm 2 m/s 747 mmHg 60%
    18:00 +32°C° 0.3 mm 2 m/s 747 mmHg 68%
    19:00 +30°C° 0.3 mm 2 m/s 748 mmHg 75%
    20:00 +29°C° 0.3 mm 1 m/s 748 mmHg 82%
    21:00 +28°C° 0 mm 1 m/s 749 mmHg 84%
    22:00 +28°C° 0 mm 1 m/s 749 mmHg 86%
    23:00 +26°C° 0 mm 0 m/s 749 mmHg 88%

    13 Abril, Segunda-feira

    Tempo Temperatura Precipitação Vento Pressão Humidade
    00:00 +26°C° 0 mm 0 m/s 749 mmHg 89%
    01:00 +25°C° 0 mm 0 m/s 749 mmHg 91%
    02:00 +25°C° 0 mm 0 m/s 748 mmHg 92%
    03:00 +25°C° 0 mm 0 m/s 748 mmHg 93%
    04:00 +25°C° 0 mm 0 m/s 748 mmHg 94%
    05:00 +24°C° 0 mm 0 m/s 748 mmHg 95%
    06:00 +26°C° 0 mm 0 m/s 749 mmHg 86%
    07:00 +28°C° 0 mm 0 m/s 749 mmHg 78%
    08:00 +29°C° 0 mm 0 m/s 750 mmHg 70%
    09:00 +33°C° 0 mm 1 m/s 750 mmHg 64%
    10:00 +34°C° 0 mm 1 m/s 749 mmHg 58%
    11:00 +35°C° 0 mm 1 m/s 749 mmHg 53%
    12:00 +35°C° 0.3 mm 1 m/s 749 mmHg 53%
    13:00 +35°C° 0.3 mm 1 m/s 748 mmHg 53%
    14:00 +35°C° 0.3 mm 1 m/s 747 mmHg 53%
    15:00 +34°C° 1 mm 1 m/s 747 mmHg 60%
    16:00 +33°C° 1 mm 1 m/s 747 mmHg 66%
    17:00 +32°C° 1 mm 1 m/s 747 mmHg 73%
    18:00 +31°C° 0.1 mm 1 m/s 747 mmHg 77%
    19:00 +29°C° 0.1 mm 1 m/s 748 mmHg 82%
    20:00 +28°C° 0.1 mm 1 m/s 748 mmHg 87%
    21:00 +28°C° 0 mm 1 m/s 749 mmHg 88%
    22:00 +28°C° 0 mm 1 m/s 749 mmHg 89%
    23:00 +27°C° 0 mm 1 m/s 749 mmHg 91%
    Mostrar mais